Location: Saint Louis
(38.6272°N, 90.1978°W)
Time: 05:27:27
(UTC-05:00)

ISS - Pass Details

Date: 22 May 2013
Orbit: 402 x 403 km, 51.6° (Epoch: 30 June)

Event Time Altitude Azimuth Distance (km) Brightness Sun altitude
Exits shadow 04:39:44 - 292° (WNW) 2,288 0.2 -11.3°
Reaches altitude 10° 04:42:46 10° 326° (NW) 1,523 -0.4 -10.8°
Maximum altitude 04:43:59 11° 347° (NNW) 1,431 -0.2 -10.6°
Drops below altitude 10° 04:45:12 10° 8° (N) 1,513 0.2 -10.4°
Sets 04:48:32 0° 43° (NE) 2,364 2.6 -9.9°
